This is the latest recevied weather packets stored in our database for station/object SP1BMW-13. If no packets are shown the sender has not sent any weather packets the latest 10 day(s).
| Time | Temp. | Humidity | Pressure | Rain* | Wind** | Luminosity | Snow |
|---|---|---|---|---|---|---|---|
| 1787919738 | 23.89° C | 55% | 1008.9 hPa | 0 mm | 0.45 m/s, 217° | 154 W/m² | - |
| 1787919678 | 23.89° C | 54% | 1009.2 hPa | 0 mm | 0.89 m/s, 28° | 153 W/m² | - |
| 1787919618 | 23.89° C | 55% | 1009.3 hPa | 0 mm | 1.79 m/s, 44° | 153 W/m² | - |
| 1787919558 | 23.89° C | 54% | 1009.3 hPa | 0 mm | 0.89 m/s, 187° | 154 W/m² | - |
| 1787919497 | 23.89° C | 55% | 1009.3 hPa | 0 mm | 1.79 m/s, 70° | 154 W/m² | - |
| 1787919438 | 23.89° C | 54% | 1009.3 hPa | 0 mm | 0.89 m/s, 43° | 154 W/m² | - |
| 1787919378 | 23.89° C | 54% | 1009.3 hPa | 0 mm | 1.79 m/s, 40° | 153 W/m² | - |
| 1787919318 | 23.89° C | 54% | 1009.4 hPa | 0 mm | 0.89 m/s, 45° | 151 W/m² | - |
| 1787919257 | 23.89° C | 53% | 1009.3 hPa | 0 mm | 0.45 m/s, 105° | 147 W/m² | - |
| 1787919198 | 23.89° C | 54% | 1009.2 hPa | 0 mm | 1.79 m/s, 40° | 140 W/m² | - |
| 1787919137 | 23.89° C | 54% | 1009.5 hPa | 0 mm | 0.89 m/s, 42° | 136 W/m² | - |
| 1787919078 | 23.89° C | 53% | 1009.4 hPa | 0 mm | 1.79 m/s, 31° | 131 W/m² | - |
| 1787919017 | 23.89° C | 55% | 1009.3 hPa | 0 mm | 0.89 m/s, 37° | 128 W/m² | - |
| 1787918958 | 23.89° C | 54% | 1009.2 hPa | 0 mm | 0.89 m/s, 51° | 129 W/m² | - |
| 1787918898 | 23.89° C | 53% | 1009.2 hPa | 0 mm | 1.34 m/s, 60° | 130 W/m² | - |
| 1787918837 | 23.89° C | 54% | 1009.1 hPa | 0 mm | 1.34 m/s, 51° | 134 W/m² | - |
| 1787918777 | 23.89° C | 53% | 1009 hPa | 0 mm | 1.79 m/s, 53° | 138 W/m² | - |
| 1787918717 | 23.89° C | 54% | 1009.1 hPa | 0 mm | 0.45 m/s, 78° | 142 W/m² | - |
| 1787918657 | 23.89° C | 53% | 1009.2 hPa | 0 mm | 2.68 m/s, 142° | 145 W/m² | - |
| 1787918598 | 23.89° C | 54% | 1009.2 hPa | 0 mm | 0.89 m/s, 51° | 150 W/m² | - |
| 1787918538 | 23.89° C | 54% | 1009.2 hPa | 0 mm | 0.89 m/s, 64° | 155 W/m² | - |
| 1787918478 | 23.89° C | 53% | 1009.2 hPa | 0 mm | 0.89 m/s, 21° | 162 W/m² | - |
| 1787918418 | 23.89° C | 54% | 1009.2 hPa | 0 mm | 0.89 m/s, 39° | 168 W/m² | - |
| 1787918358 | 23.89° C | 54% | 1009.2 hPa | 0 mm | 0.89 m/s, 67° | 174 W/m² | - |
| 1787918298 | 23.89° C | 54% | 1009.4 hPa | 0 mm | 0.89 m/s, 82° | 179 W/m² | - |
* Rain latest hour (hover to see other rain measurements)
** Current wind speed in m/s (hover to see current wind gust speed)